CZ-6A DEB

Satellite information

Favourite Embed

Satellite Type and Status

DEBRISIN ORBIT

Key statistics

Satellite CZ-6A DEB at a glance.

Uptime

909

Days in orbit

Revolutions

≈ 14.3

Per day

Orbit

SSO

Sun Synchronous Orbit

Inclination

98.8

Latest

Satellite identification and parameters

Extended collection of information and parameters for CZ-6A DEB.

Object identification

Identified? True

Debris? True

Object name: CZ-6A DEB

International designator: 2022-151JW

Object number (NORAD): 54518

Object ID (CCSDS): 54518

Country: PEOPLES REPUBLIC OF CHINA (PRC)

Current information (Y/N): Y

RCS size: SMALL

Orbital parameters

Period: 100.773 minutes

Inclination: 98.8101 deg

SMA: 7173.378 km

Apoapsis: 886.583 km

Periapsis: 703.904 km

RAAN: 158.4283 deg

Eccentricy: 0.0127331

Argument of periapsis: 218.9687 deg

Mean anomaly: 140.2266 deg

Mean motion: 14.28950391 rev/day

Mean motion (dot): 0.00000647 rev/day2

B* drag term: 0.00025187 1/REarth

Two-line elements (TLE)

Creation date: May 8, 2025, 3:01 a.m.

Reference frame: TEME

Reference center: EARTH

Epoch: May 7, 2025, 3:06 p.m. UTC

TLE line 0: 0 CZ-6A DEB

TLE line 1: 1 54518U 22151JW 25127.62929525 .00000647 00000-0 25187-3 0 9994

TLE line 2: 2 54518 98.8101 158.4283 0127331 218.9687 140.2266 14.28950391129152

Live tracking on map

Real-time ground track for satellite CZ-6A DEB.

In-orbit conjunctions

A list of the most updated potential collisions computed for object CZ-6A DEB.

Target Orbit TCA Probability of collision Miss distance Type
CZ-4 DEB SSO 2025-03-25 19:01:03 0.0002402041 36.0 (m) DEBRIS
DMSP 5D-2 F13 DEB SSO 2024-11-15 12:46:59 0.0002844926 731.0 (m) DEBRIS

Associated space launch

Chinese satellite reported for atmospheric/ocean/environmental/spatial parameter research purposes, details TBD.

CZ-6A DEB was lifted into orbit during the mission ‘Long March 6A | Yunhai 3’, on board a Long March 6A space rocket.

The launch took place on Nov. 11, 2022, 10:52 p.m. from Launch Complex 9A.

For more information about the launch, click the button.

Launch to space Long March 6A | Yunhai 3
Long March 6A | Yunhai 3

Agency: N/A

Status: Launch Successful

Launch date: Nov. 11, 2022, 10:52 p.m. UTC

Rocket: Long March 6A

Launch pad: Launch Complex 9A

Location: Taiyuan Satellite Launch Center, People's Republic of China

...

Latest news about this satellite

There are no fresh news available about this satellite. Check back as we update our databases every day.


Newsletter sign-up

Weekly statistics, charts and insights to help you stay on top of the space industry.